DW7780 Weather Reports


Display with metric or nautical units.
time (UTC)temp
F
wind
direction
speed
MPH
gust
MPH
rain 1hr
in
rain 24hr
in
rain mn
in
humidity
%
barometer
mb
20260503001528 53 0 0.0 3.0 0.00 0.01 0.01 45 1011.0
20260503000029 54 0 0.0 7.0 0.00 0.01 0.01 43 1010.8
20260502234529 55 0 0.0 7.0 0.00 0.01 0.01 44 1010.8
20260502233027 55 0 0.0 8.0 0.00 0.01 0.01 41 1010.7
20260502231530 56 0 1.0 8.0 0.00 0.01 0.01 42 1010.8
20260502230033 56 296 2.0 8.0 0.00 0.01 0.01 44 1010.7
20260502224529 57 292 0.0 7.0 0.00 0.01 0.01 42 1010.6
20260502223027 57 309 1.0 10.0 0.00 0.01 0.01 40 1010.5
20260502221532 58 0 4.0 10.0 0.00 0.01 0.01 39 1010.4
20260502220029 58 0 0.0 5.0 0.00 0.01 0.01 40 1010.3
20260502214528 59 309 2.0 8.0 0.00 0.01 0.01 39 1010.4
20260502213029 58 261 2.0 10.0 0.00 0.01 0.01 42 1010.3
20260502211528 58 311 2.0 7.0 0.00 0.01 0.01 39 1010.2
20260502210030 58 0 0.0 4.0 0.00 0.01 0.01 41 1010.0
20260502204529 58 261 2.0 7.0 0.00 0.01 0.01 40 1009.9
20260502203028 59 0 0.0 9.0 0.00 0.01 0.01 43 1010.1
20260502201533 59 199 0.0 5.0 0.00 0.01 0.01 38 1010.1
20260502200029 58 0 0.0 4.0 0.00 0.01 0.01 43 1010.4
20260502194525 58 0 0.0 6.0 0.00 0.01 0.01 46 1010.6
20260502193028 58 0 2.0 8.0 0.00 0.01 0.01 43 1010.9
20260502191528 58 264 1.0 5.0 0.00 0.01 0.01 46 1011.2
20260502190035 58 0 2.0 9.0 0.00 0.01 0.01 47 1011.5
20260502184542 57 253 0.0 8.0 0.00 0.01 0.01 48 1011.6
20260502183035 57 288 0.0 6.0 0.00 0.01 0.01 48 1011.9
20260502181539 57 5 1.0 6.0 0.00 0.01 0.01 46 1011.8
20260502163031 56 288 0.0 5.0 0.00 0.01 0.01 53 1012.6
20260502161529 56 0 0.0 9.0 0.00 0.01 0.01 51 1012.9
20260502151530 52 277 2.0 9.0 0.00 0.01 0.01 63 1012.8
20260502123033 50 328 0.0 5.0 0.01 0.01 0.01 80 1012.8
20260502121536 50 0 0.0 9.0 0.01 0.01 0.01 80 1012.7
20260502114527 49 0 0.0 6.0 0.00 0.00 0.00 84 1012.5
20260502113026 49 0 0.0 0.0 0.00 0.00 0.00 86 1012.2
20260502111530 48 0 0.0 0.0 0.00 0.00 0.00 91 1012.1
20260502110030 47 0 0.0 0.0 0.00 0.00 0.00 91 1011.9
20260502104530 47 0 0.0 0.0 0.00 0.00 0.00 91 1011.7
20260502103031 46 0 0.0 0.0 0.00 0.00 0.00 90 1011.6
20260502101540 46 0 0.0 0.0 0.00 0.00 0.00 90 1011.8
20260502091528 48 0 0.0 0.0 0.00 0.00 0.00 89 1011.4
20260502071528 48 0 0.0 0.0 0.00 0.00 0.00 89 1011.7
20260502070028 48 0 0.0 0.0 0.00 0.00 0.00 88 1011.6
20260502064530 48 0 0.0 0.0 0.00 0.00 0.00 87 1011.7
20260502063030 49 0 0.0 0.0 0.00 0.00 0.00 86 1011.6
20260502061529 49 0 0.0 0.0 0.00 0.00 0.00 85 1011.8
20260502060026 49 0 0.0 0.0 0.00 0.00 0.00 86 1011.6
20260502054530 49 0 0.0 0.0 0.00 0.00 0.00 86 1011.9
20260502053028 49 0 0.0 0.0 0.00 0.00 0.00 84 1012.2
20260502051530 49 0 0.0 0.0 0.00 0.00 0.00 83 1012.1
20260502050035 49 0 0.0 0.0 0.00 0.00 0.00 81 1012.1
20260502044527 49 0 0.0 0.0 0.00 0.00 0.00 82 1012.1
20260502043030 49 0 0.0 0.0 0.00 0.00 0.00 81 1011.8
20260502041542 49 0 0.0 0.0 0.00 0.00 0.00 80 1011.8
20260502040026 49 0 0.0 0.0 0.00 0.00 0.00 81 1011.5
20260502034528 49 0 0.0 0.0 0.00 0.00 0.00 80 1011.5
20260502033031 49 0 0.0 0.0 0.00 0.00 0.00 81 1011.5
20260502031530 49 0 0.0 0.0 0.00 0.00 0.00 80 1011.4
20260502030028 49 0 0.0 0.0 0.00 0.00 0.00 82 1011.5
20260502024528 49 0 0.0 0.0 0.00 0.00 0.00 80 1011.8
20260502023026 48 0 0.0 0.0 0.00 0.00 0.00 79 1011.9
20260502021528 48 0 0.0 0.0 0.00 0.00 0.00 79 1011.9
20260502020028 48 0 0.0 0.0 0.00 0.00 0.00 79 1011.7
20260502014529 48 0 0.0 0.0 0.00 0.00 0.00 79 1011.6
20260502013028 49 0 0.0 0.0 0.00 0.00 0.00 78 1011.5
20260502011530 49 0 0.0 0.0 0.00 0.00 0.00 75 1011.3
20260502010030 51 0 0.0 0.0 0.00 0.00 0.00 72 1011.3
20260502004528 52 0 0.0 0.0 0.00 0.00 0.00 68 1011.1
20260502003025 54 0 0.0 0.0 0.00 0.00 0.00 64 1010.9